Weather History for KACQ - December, 2013

Change the Weather History Date:

Monday, December 9, 2013

  Actual Average Record
Temperature  
Mean Temperature 4 °F -  
Max Temperature 14 °F 26 °F 60 °F (1939)
Min Temperature -5 °F 8 °F -21 °F (1958)
Degree Days  
Heating Degree Days 60    
Moisture  
Dew Point -4 °F    
Average Humidity 77    
Maximum Humidity 93    
Minimum Humidity 66    
Precipitation  
Precipitation 0.00 in - - ()
Sea Level Pressure  
Sea Level Pressure 30.06 in    
Wind  
Wind Speed 11 mph (WSW)    
Max Wind Speed 18 mph    
Max Gust Speed 22 mph    
Visibility 10 miles    
Events Snow    
Averages and records for this station are not official NWS values.
T = Trace of Precipitation, MM = Missing Value Source: NWS Daily Summary

Daily Weather History Graph

Daily Weather History Graph

Search for Another Location

Airport or City:

Trip Planner

Search our weather history database for the weather conditions in past years. The results will help you decide how hot, cold, wet, or windy it might be!

Date:

Astronomy

Dec. 09, 2013 Rise Set
Actual Time 7:37 AM CST 4:35 PM CST
Civil Twilight 7:04 AM CST 5:08 PM CST
Nautical Twilight 6:28 AM CST 5:45 PM CST
Astronomical Twilight 5:53 AM CST 6:20 PM CST
Moon 12:18 PM CST (12/9) No Moon Set
Length of Visible Light 10h 04m
Length of Day
8h 58m
Waxing Crescent, 51% of the Moon is Illuminated
Dec 9
Waxing Crescent
Dec 17
Full
Dec 25
Last Quarter
Jan 1
New
Jan 7
First Quarter

Hourly Weather History & Observations

Time (CST) Temp. Windchill Dew Point Humidity Pressure Visibility Wind Dir Wind Speed Gust Speed Precip Events Conditions
12:13 AM 14.0 °F 5.1 °F 12.2 °F 93% 30.02 in 4.0 mi West 5.8 mph - N/A Snow Light Snow
12:34 AM 14.0 °F 2.0 °F 12.2 °F 93% 30.02 in 10.0 mi West 9.2 mph - N/A   Overcast
12:54 AM 14.0 °F 1.2 °F 12.2 °F 93% 30.02 in 7.0 mi West 10.4 mph - N/A Snow Light Snow
1:13 AM 14.0 °F -0.8 °F 12.2 °F 93% 30.02 in 7.0 mi West 13.8 mph - N/A Snow Light Snow
1:34 AM 10.4 °F -1.5 °F 5.0 °F 79% 30.02 in 5.0 mi West 8.1 mph - N/A Snow Light Snow
1:54 AM 6.8 °F -6.9 °F 3.2 °F 85% 30.02 in 7.0 mi West 9.2 mph - N/A Snow Light Snow
2:14 AM 5.0 °F -9.1 °F 1.4 °F 85% 30.02 in 10.0 mi West 9.2 mph - N/A   Clear
2:34 AM 3.2 °F -10.3 °F 1.4 °F 92% 30.02 in 10.0 mi West 8.1 mph - N/A   Clear
2:54 AM 1.4 °F -12.5 °F -2.2 °F 85% 30.02 in 10.0 mi WSW 8.1 mph - N/A   Clear
3:13 AM 3.2 °F -12.2 °F 1.4 °F 92% 30.02 in 10.0 mi West 10.4 mph - N/A   Clear
3:34 AM 3.2 °F -11.3 °F -0.4 °F 85% 30.02 in 10.0 mi WSW 9.2 mph - N/A   Clear
3:54 AM 1.4 °F -12.5 °F -2.2 °F 85% 30.02 in 10.0 mi WSW 8.1 mph - N/A   Clear
4:14 AM -0.4 °F -15.7 °F -4.0 °F 85% 30.02 in 10.0 mi WSW 9.2 mph - N/A   Clear
4:34 AM 1.4 °F -13.5 °F -2.2 °F 85% 30.02 in 10.0 mi WSW 9.2 mph - N/A   Clear
4:53 AM 1.4 °F -14.5 °F -4.0 °F 78% 30.03 in 10.0 mi West 10.4 mph - N/A   Clear
5:14 AM -0.4 °F -15.7 °F -4.0 °F 85% 30.03 in 10.0 mi WSW 9.2 mph - N/A   Clear
5:34 AM -0.4 °F -14.7 °F -5.8 °F 78% 30.03 in 10.0 mi WSW 8.1 mph - N/A   Clear
5:54 AM -0.4 °F -14.7 °F -5.8 °F 78% 30.04 in 10.0 mi WSW 8.1 mph - N/A   Clear
6:14 AM -0.4 °F -17.6 °F -4.0 °F 85% 30.04 in 10.0 mi West 11.5 mph - N/A   Clear
6:34 AM -0.4 °F -17.6 °F -4.0 °F 85% 30.05 in 10.0 mi West 11.5 mph - N/A   Clear
6:54 AM -0.4 °F -18.4 °F -5.8 °F 78% 30.06 in 10.0 mi West 12.7 mph - N/A   Clear
7:14 AM -0.4 °F -16.7 °F -5.8 °F 78% 30.07 in 10.0 mi West 10.4 mph - N/A   Clear
7:34 AM -0.4 °F -16.7 °F -5.8 °F 78% 30.08 in 10.0 mi West 10.4 mph - N/A   Clear
7:54 AM -0.4 °F -15.7 °F -5.8 °F 78% 30.09 in 10.0 mi West 9.2 mph - N/A   Clear
8:14 AM -4.0 °F -22.1 °F -7.6 °F 85% 30.10 in 10.0 mi WSW 11.5 mph - N/A   Clear
8:34 AM -4.0 °F -23.0 °F -7.6 °F 85% 30.11 in 10.0 mi West 12.7 mph - N/A   Clear
8:54 AM -0.4 °F -19.2 °F -5.8 °F 78% 30.11 in 10.0 mi West 13.8 mph - N/A   Clear
9:14 AM -0.4 °F -19.9 °F -5.8 °F 78% 30.13 in 10.0 mi West 15.0 mph - N/A   Clear
9:33 AM -0.4 °F -21.2 °F -5.8 °F 78% 30.13 in 10.0 mi West 17.3 mph - N/A   Clear
9:54 AM -0.4 °F -21.2 °F -5.8 °F 78% 30.14 in 10.0 mi West 17.3 mph - N/A   Clear
10:14 AM -0.4 °F -20.5 °F -7.6 °F 72% 30.15 in 5.0 mi West 16.1 mph - N/A Snow Light Snow
10:34 AM -0.4 °F -21.2 °F -5.8 °F 78% 30.14 in 7.0 mi West 17.3 mph - N/A   Clear
10:54 AM 1.4 °F -17.6 °F -5.8 °F 72% 30.14 in 10.0 mi West 15.0 mph - N/A   Clear
11:14 AM 1.4 °F -18.8 °F -5.8 °F 72% 30.13 in 10.0 mi West 17.3 mph - N/A   Clear
11:34 AM 1.4 °F -18.8 °F -5.8 °F 72% 30.13 in 10.0 mi West 17.3 mph - N/A   Clear
11:54 AM 1.4 °F -18.8 °F -5.8 °F 72% 30.13 in 10.0 mi WSW 17.3 mph - N/A   Clear
12:15 PM 1.4 °F -18.2 °F -7.6 °F 66% 30.13 in 10.0 mi WSW 16.1 mph - N/A   Clear
12:34 PM 1.4 °F -18.8 °F -5.8 °F 72% 30.13 in 10.0 mi West 17.3 mph - N/A   Clear
12:54 PM 1.4 °F -18.8 °F -5.8 °F 72% 30.13 in 2.5 mi West 17.3 mph - N/A Snow Light Snow
1:14 PM 3.2 °F -16.5 °F -4.0 °F 72% 30.13 in 10.0 mi West 17.3 mph - N/A   Clear
1:34 PM 3.2 °F -15.9 °F -4.0 °F 72% 30.13 in 10.0 mi West 16.1 mph 21.9 mph N/A   Clear
1:53 PM 3.2 °F -15.9 °F -4.0 °F 72% 30.13 in 10.0 mi West 16.1 mph - N/A   Clear
2:14 PM 3.2 °F -15.3 °F -4.0 °F 72% 30.13 in 10.0 mi West 15.0 mph - N/A   Clear
2:34 PM 3.2 °F -15.3 °F -4.0 °F 72% 30.13 in 10.0 mi WSW 15.0 mph - N/A   Clear
2:54 PM 3.2 °F -15.3 °F -5.8 °F 66% 30.13 in 10.0 mi WSW 15.0 mph - N/A   Clear
3:14 PM 3.2 °F -14.6 °F -5.8 °F 66% 30.13 in 10.0 mi WSW 13.8 mph - N/A   Clear
3:34 PM 3.2 °F -13.1 °F -5.8 °F 66% 30.13 in 10.0 mi WSW 11.5 mph - N/A   Clear
3:54 PM 3.2 °F -12.2 °F -5.8 °F 66% 30.12 in 10.0 mi WSW 10.4 mph - N/A   Clear
4:14 PM 1.4 °F -11.3 °F -7.6 °F 66% 30.11 in 10.0 mi SSW 6.9 mph - N/A   Clear
4:34 PM 1.4 °F -9.9 °F -7.6 °F 66% 30.11 in 10.0 mi SSW 5.8 mph - N/A   Clear
4:55 PM -0.4 °F -14.7 °F -7.6 °F 72% 30.12 in 10.0 mi SW 8.1 mph - N/A   Clear
5:14 PM -0.4 °F -14.7 °F -7.6 °F 72% 30.12 in 10.0 mi SSW 8.1 mph - N/A   Clear
5:34 PM -0.4 °F -12.0 °F -7.6 °F 72% 30.12 in 10.0 mi SW 5.8 mph - N/A   Clear
5:54 PM -5.8 °F -22.4 °F -13.0 °F 71% 30.11 in 10.0 mi SSW 9.2 mph - N/A   Clear
6:15 PM -4.0 °F -20.2 °F -9.4 °F 78% 30.10 in 10.0 mi SSW 9.2 mph - N/A   Clear
6:34 PM -0.4 °F -15.7 °F -7.6 °F 72% 30.09 in 10.0 mi South 9.2 mph - N/A   Clear
6:55 PM -0.4 °F -15.7 °F -7.6 °F 72% 30.08 in 10.0 mi SSW 9.2 mph - N/A   Clear
7:14 PM -0.4 °F -15.7 °F -7.6 °F 72% 30.07 in 10.0 mi South 9.2 mph - N/A   Clear
7:34 PM -0.4 °F -13.4 °F -7.6 °F 72% 30.07 in 10.0 mi South 6.9 mph - N/A   Clear
7:55 PM -0.4 °F -15.7 °F -7.6 °F 72% 30.06 in 10.0 mi South 9.2 mph - N/A   Clear
8:15 PM 1.4 °F -14.5 °F -4.0 °F 78% 30.05 in 10.0 mi South 10.4 mph - N/A   Clear
8:34 PM 1.4 °F -14.5 °F -5.8 °F 72% 30.05 in 10.0 mi South 10.4 mph - N/A   Scattered Clouds
8:54 PM 1.4 °F -16.1 °F -4.0 °F 78% 30.03 in 10.0 mi South 12.7 mph - N/A   Scattered Clouds
9:14 PM 1.4 °F -16.1 °F -4.0 °F 78% 30.02 in 10.0 mi South 12.7 mph - N/A   Clear
9:34 PM 1.4 °F -14.5 °F -4.0 °F 78% 30.00 in 10.0 mi South 10.4 mph - N/A   Clear
9:54 PM 1.4 °F -16.1 °F -4.0 °F 78% 29.98 in 10.0 mi South 12.7 mph - N/A   Clear
10:14 PM 3.2 °F -14.6 °F -2.2 °F 78% 29.96 in 10.0 mi South 13.8 mph 18.4 mph N/A   Clear
10:34 PM 5.0 °F -13.6 °F -0.4 °F 78% 29.93 in 10.0 mi South 16.1 mph 20.7 mph N/A   Scattered Clouds
10:54 PM 6.8 °F -11.8 °F 1.4 °F 79% 29.91 in 10.0 mi South 17.3 mph - N/A   Mostly Cloudy
11:14 PM 6.8 °F -10.7 °F 1.4 °F 79% 29.90 in 10.0 mi South 15.0 mph - N/A   Overcast
11:34 PM 6.8 °F -12.4 °F 1.4 °F 79% 29.88 in 10.0 mi South 18.4 mph - N/A   Overcast
11:54 PM 8.6 °F -9.5 °F 1.4 °F 73% 29.88 in 10.0 mi SSW 17.3 mph 20.7 mph N/A   Overcast